Flag for Sweden Weather past 2 weeks in Norrköping, Sweden

Now
48 °F

Cool.


Feels Like: 48 °F
Forecast: 49 / 67 °F
Wind: No wind

Location: Norrkoping Airport

Current Time: Aug 29, 2014 at 1:34:07 AM

Latest Report: Aug 29, 2014 at 12:50 AM


Visibility: N/A

Pressure: 29.98 "Hg

Humidity: 87%

Dew point: 45 °F

Location of NorrköpingLocation

Historic Weather in Norrköping — Graph

°F

Norrköping temperature yesterday

Maximum temperature yesterday: 68 °F (at 4:20 PM)
Minimum temperature yesterday: 45 °F (at 2:50 AM)
Average temperature yesterday: 57 °F

Past Weeks' High & Low Weather Summary

 TemperatureHumidityPressure
High70 °F (Aug 14, 12:50 PM)100% (Aug 14, 12:20 AM)29.98 "Hg (Aug 14, 12:20 AM)
Low43 °F (Aug 26, 2:50 AM)38% (Aug 28, 5:20 PM)29.30 "Hg (Aug 18, 1:20 PM)
Average58 °F79%29.63 "Hg
* Reported Aug 14 12:20 AM — Aug 29 12:20 AM, Norrköping, Weather by CustomWeather, © 2014

Note: Actual official high and low records may vary slightly from our data, if they occured in-between our weather recording intervals... More about our weather records

Advertising

Norrköping weather history for previous 24 hours

 ConditionsComfort  
Time TempWeatherWind HumidityBarometerVisibility
12:20 AM
Aug 29
48 °FCool.No wind87%29.98 "HgN/A
11:50 PM
Aug 28
50 °FCool.No wind82%29.95 "HgN/A
11:20 PM52 °FCool.1 mph82%29.95 "HgN/A
10:50 PM54 °FCool.3 mph77%29.95 "HgN/A
10:20 PM57 °FPassing clouds.6 mph67%29.95 "HgN/A
9:50 PM54 °FClear.7 mph82%29.95 "Hg10 mi
9:20 PM52 °FClear.3 mph77%29.95 "Hg10 mi
8:50 PM54 °FSunny.No wind72%29.92 "Hg10 mi
8:20 PM59 °FSunny.No wind59%29.92 "Hg10 mi
7:50 PM64 °FSunny.2 mph49%29.92 "Hg10 mi
7:20 PM64 °FSunny.5 mph46%29.92 "Hg10 mi
6:50 PM66 °FSunny.9 mph40%29.92 "Hg10 mi
6:20 PM68 °FSunny.6 mph38%29.92 "Hg10 mi
5:20 PM68 °FSunny.9 mph38%29.92 "Hg10 mi
4:50 PM68 °FSunny.8 mph40%29.89 "Hg10 mi
4:20 PM68 °FPassing clouds.7 mph40%29.89 "HgN/A
3:50 PM66 °FSunny.9 mph43%29.89 "Hg10 mi
3:20 PM66 °FSunny.8 mph43%29.89 "Hg10 mi
2:50 PM66 °FSunny.9 mph46%29.89 "Hg10 mi
2:20 PM66 °FSunny.9 mph40%29.89 "Hg10 mi
1:50 PM66 °FPassing clouds.9 mph40%29.89 "HgN/A
1:20 PM66 °FPassing clouds.9 mph49%29.89 "HgN/A
12:50 PM66 °FPassing clouds.9 mph46%29.89 "HgN/A
12:20 PM64 °FSunny.8 mph60%29.89 "Hg10 mi
11:50 AM63 °FSunny.10 mph64%29.89 "Hg10 mi
11:20 AM61 °FSunny.10 mph63%29.89 "Hg10 mi
10:50 AM61 °FPassing clouds.7 mph63%29.89 "HgN/A
10:20 AM59 °FPassing clouds.7 mph63%29.89 "HgN/A
9:50 AM59 °FSunny.8 mph68%29.89 "Hg10 mi
9:20 AM57 °FSunny.8 mph67%29.89 "Hg10 mi
8:50 AM57 °FSunny.8 mph67%29.89 "Hg10 mi
8:20 AM55 °FSunny.8 mph72%29.89 "Hg10 mi
7:50 AM54 °FSunny.7 mph77%29.89 "Hg10 mi
7:20 AM52 °FSunny.6 mph82%29.89 "Hg10 mi
6:50 AM48 °FSunny.5 mph87%29.86 "Hg10 mi
6:20 AM48 °FCool.5 mph82%29.86 "HgN/A
5:50 AM48 °FCool.1 mph87%29.86 "HgN/A
5:20 AM46 °FCool.3 mph87%29.86 "HgN/A
4:50 AM46 °FCool.5 mph93%29.86 "HgN/A
4:20 AM46 °FCool.3 mph87%29.86 "HgN/A
3:50 AM45 °FQuite cool.3 mph93%29.86 "HgN/A
3:20 AM46 °FCool.2 mph87%29.86 "HgN/A
2:50 AM45 °FQuite cool.No wind87%29.86 "HgN/A
2:20 AM46 °FCool.No wind87%29.86 "HgN/A
1:50 AM48 °FCool.3 mph82%29.86 "HgN/A
1:20 AM50 °FCool.5 mph82%29.86 "HgN/A
Weather by CustomWeather, © 2014

See weather overviewHow to use our weather pages